FAB2901 SBBE-SBGL

Flight info

Callsign FAB2901
Flight time 3h 9m
Altitude 36000
Route UZ3 MAGVU DCT
Aircraft C30/H-SDE3/C

Departure

Time 2026-05-07 10:55
Airport Val de Cans/Júlio Cezar Ribeiro International Airport (SBBE)

Arrival

Time 2026-05-07 14:04
Airport Rio Galeão – Tom Jobim International Airport (SBGL)
Time Latitude Longitude Altitude Speed Heading
2026-05-07 10:44 -1.38435 -48.48317 71 ft 0 kts 282°
2026-05-07 10:50 -1.38433 -48.48329 71 ft 7 kts 271°
2026-05-07 10:50 -1.38475 -48.48376 71 ft 7 kts 223°
2026-05-07 10:50 -1.38529 -48.48427 71 ft 14 kts 224°
2026-05-07 10:50 -1.38596 -48.48499 71 ft 7 kts 226°
2026-05-07 10:51 -1.38652 -48.48519 71 ft 14 kts 179°
2026-05-07 10:51 -1.38657 -48.48519 71 ft 0 kts 177°
2026-05-07 10:52 -1.38687 -48.48517 71 ft 12 kts 177°
2026-05-07 10:53 -1.38732 -48.48514 71 ft 9 kts 168°
2026-05-07 10:53 -1.38776 -48.48471 71 ft 1 kts 59°
2026-05-07 10:53 -1.38773 -48.48467 71 ft 0 kts 54°
2026-05-07 10:54 -1.38770 -48.48463 71 ft 7 kts 51°
2026-05-07 10:54 -1.38578 -48.48271 72 ft 73 kts 45°
2026-05-07 10:54 -1.38044 -48.47736 73 ft 142 kts 45°
2026-05-07 10:54 -1.37240 -48.46925 373 ft 179 kts 45°
2026-05-07 10:55 -1.36291 -48.45963 1007 ft 210 kts 49°
2026-05-07 10:55 -1.35471 -48.44675 1171 ft 225 kts 64°
2026-05-07 10:55 -1.35277 -48.43187 1114 ft 204 kts 95°
2026-05-07 10:55 -1.35820 -48.41962 1466 ft 192 kts 123°
2026-05-07 10:56 -1.36897 -48.41132 1642 ft 209 kts 149°
2026-05-07 10:56 -1.38350 -48.40841 1787 ft 214 kts 174°
2026-05-07 10:56 -1.39828 -48.41017 1978 ft 214 kts 186°
2026-05-07 10:56 -1.41264 -48.41330 2098 ft 209 kts 191°
2026-05-07 10:57 -1.42661 -48.41666 2123 ft 207 kts 191°
2026-05-07 10:57 -1.44075 -48.41995 2040 ft 206 kts 191°
2026-05-07 10:57 -1.45420 -48.42280 2165 ft 195 kts 189°
2026-05-07 10:57 -1.46759 -48.42526 2290 ft 194 kts 188°
2026-05-07 10:58 -1.48088 -48.42731 2417 ft 195 kts 186°
2026-05-07 10:58 -1.49432 -48.42868 2547 ft 195 kts 182°
2026-05-07 10:58 -1.50806 -48.42847 2683 ft 195 kts 175°
2026-05-07 10:58 -1.52137 -48.42666 2818 ft 195 kts 169°
2026-05-07 10:59 -1.53465 -48.42357 2973 ft 194 kts 164°
2026-05-07 10:59 -1.54734 -48.41975 3320 ft 189 kts 161°
2026-05-07 10:59 -1.55987 -48.41549 3629 ft 191 kts 159°
2026-05-07 10:59 -1.57252 -48.41094 3961 ft 202 kts 159°
2026-05-07 11:00 -1.58646 -48.40579 4319 ft 224 kts 158°
2026-05-07 11:00 -1.60150 -48.40028 4635 ft 233 kts 159°
2026-05-07 11:00 -1.61712 -48.39553 4941 ft 234 kts 163°
2026-05-07 11:00 -1.63306 -48.39160 5250 ft 236 kts 166°
2026-05-07 11:01 -1.64896 -48.38824 5549 ft 237 kts 167°
2026-05-07 11:01 -1.66529 -48.38513 5852 ft 238 kts 168°
2026-05-07 11:01 -1.68158 -48.38221 6157 ft 244 kts 169°
2026-05-07 11:01 -1.69926 -48.37913 6507 ft 271 kts 169°
2026-05-07 11:02 -1.71875 -48.37576 6839 ft 297 kts 169°
2026-05-07 11:02 -1.73953 -48.37218 7143 ft 304 kts 169°
2026-05-07 11:02 -1.76035 -48.36862 7441 ft 304 kts 169°
2026-05-07 11:02 -1.78134 -48.36495 7740 ft 304 kts 169°
2026-05-07 11:03 -1.80217 -48.36122 8037 ft 304 kts 169°
2026-05-07 11:03 -1.82288 -48.35744 8335 ft 304 kts 169°
2026-05-07 11:03 -1.84356 -48.35360 8634 ft 303 kts 169°
2026-05-07 11:03 -1.86424 -48.34974 8929 ft 302 kts 169°
2026-05-07 11:04 -1.88489 -48.34585 9229 ft 301 kts 169°
2026-05-07 11:04 -1.90546 -48.34197 9528 ft 300 kts 169°
2026-05-07 11:04 -1.92591 -48.33810 9825 ft 298 kts 169°
2026-05-07 11:04 -1.94622 -48.33426 10121 ft 297 kts 169°
2026-05-07 11:05 -1.96647 -48.33043 10418 ft 295 kts 169°
2026-05-07 11:05 -1.98665 -48.32661 10715 ft 293 kts 169°
2026-05-07 11:05 -2.00678 -48.32267 11013 ft 291 kts 169°
2026-05-07 11:05 -2.02645 -48.31846 11308 ft 289 kts 168°
2026-05-07 11:06 -2.04593 -48.31407 11601 ft 287 kts 167°
2026-05-07 11:06 -2.06531 -48.30963 11896 ft 284 kts 166°
2026-05-07 11:06 -2.08452 -48.30507 12192 ft 282 kts 166°
2026-05-07 11:06 -2.10358 -48.30044 12489 ft 279 kts 165°
2026-05-07 11:07 -2.12218 -48.29587 12781 ft 275 kts 165°
2026-05-07 11:07 -2.14072 -48.29129 13075 ft 272 kts 166°
2026-05-07 11:07 -2.15895 -48.28676 13367 ft 268 kts 166°
2026-05-07 11:07 -2.17700 -48.28228 13659 ft 264 kts 166°
2026-05-07 11:08 -2.19468 -48.27789 13949 ft 260 kts 166°
2026-05-07 11:08 -2.21195 -48.27359 14236 ft 255 kts 166°
2026-05-07 11:08 -2.22901 -48.26936 14522 ft 250 kts 166°
2026-05-07 11:08 -2.24573 -48.26519 14805 ft 245 kts 167°
2026-05-07 11:09 -2.26220 -48.26105 15077 ft 239 kts 168°
2026-05-07 11:09 -2.27273 -48.25841 15249 ft 234 kts 168°
2026-05-07 11:09 -2.29334 -48.25346 15615 ft 223 kts 164°
2026-05-07 11:09 -2.30812 -48.24986 15721 ft 214 kts 164°
2026-05-07 11:10 -2.32280 -48.24618 13566 ft 229 kts 166°
2026-05-07 11:10 -2.33404 -48.24338 11203 ft 273 kts 165°
2026-05-07 11:10 -2.35351 -48.23850 10887 ft 258 kts 166°
2026-05-07 11:10 -2.36781 -48.23497 12933 ft 186 kts 165°
2026-05-07 11:11 -2.38089 -48.23174 12718 ft 211 kts 165°
2026-05-07 11:11 -2.39537 -48.22814 12109 ft 211 kts 165°
2026-05-07 11:11 -2.41019 -48.22444 9503 ft 239 kts 166°
2026-05-07 11:11 -2.42794 -48.22001 7561 ft 273 kts 165°
2026-05-07 11:12 -2.44300 -48.21631 9629 ft 172 kts 165°
2026-05-07 11:12 -2.45384 -48.21364 10171 ft 169 kts 165°
2026-05-07 11:12 -2.46651 -48.21049 8804 ft 201 kts 165°
2026-05-07 11:12 -2.48165 -48.20671 6082 ft 251 kts 165°
2026-05-07 11:13 -2.49865 -48.20249 5844 ft 221 kts 164°
2026-05-07 11:13 -2.51044 -48.19966 7691 ft 147 kts 164°
2026-05-07 11:13 -2.52100 -48.19704 7291 ft 171 kts 164°
2026-05-07 11:13 -2.53413 -48.19371 4756 ft 225 kts 164°
2026-05-07 11:14 -2.55120 -48.18937 2993 ft 281 kts 164°
2026-05-07 11:14 -2.57211 -48.18399 2076 ft 332 kts 165°
2026-05-07 11:14 -2.59476 -48.17814 2233 ft 340 kts 165°
2026-05-07 11:14 -2.61814 -48.17228 2379 ft 346 kts 165°
2026-05-07 11:15 -2.64136 -48.16663 2735 ft 346 kts 165°
2026-05-07 11:15 -2.66481 -48.16095 2979 ft 349 kts 165°
2026-05-07 11:15 -2.68847 -48.15522 3201 ft 342 kts 165°
2026-05-07 11:15 -2.71064 -48.14985 3435 ft 321 kts 165°
2026-05-07 11:16 -2.73216 -48.14465 3671 ft 309 kts 165°
2026-05-07 11:16 -2.75267 -48.13967 3915 ft 304 kts 165°
2026-05-07 11:16 -2.77337 -48.13464 4166 ft 302 kts 165°
2026-05-07 11:16 -2.79360 -48.12969 4414 ft 301 kts 165°
2026-05-07 11:17 -2.81394 -48.12472 4664 ft 300 kts 165°
2026-05-07 11:17 -2.83424 -48.11975 4914 ft 300 kts 165°
2026-05-07 11:17 -2.85460 -48.11476 5166 ft 300 kts 165°
2026-05-07 11:17 -2.87481 -48.10980 5415 ft 301 kts 165°
2026-05-07 11:18 -2.89518 -48.10481 5666 ft 301 kts 165°
2026-05-07 11:18 -2.91536 -48.09985 5914 ft 302 kts 165°
2026-05-07 11:18 -2.93604 -48.09478 6168 ft 302 kts 165°
2026-05-07 11:18 -2.95648 -48.08977 6418 ft 303 kts 165°
2026-05-07 11:19 -2.97701 -48.08473 6669 ft 304 kts 165°
2026-05-07 11:19 -2.99761 -48.07967 6919 ft 305 kts 165°
2026-05-07 11:19 -3.01812 -48.07464 7168 ft 306 kts 165°
2026-05-07 11:19 -3.03885 -48.06956 7419 ft 307 kts 165°
2026-05-07 11:20 -3.05966 -48.06446 7670 ft 308 kts 165°
2026-05-07 11:20 -3.08066 -48.05931 7922 ft 309 kts 165°
2026-05-07 11:20 -3.10161 -48.05417 8172 ft 311 kts 165°
2026-05-07 11:20 -3.12240 -48.04907 8420 ft 312 kts 165°
2026-05-07 11:21 -3.14378 -48.04383 8675 ft 313 kts 165°
2026-05-07 11:21 -3.16488 -48.03865 8923 ft 314 kts 165°
2026-05-07 11:21 -3.18612 -48.03345 9175 ft 315 kts 165°
2026-05-07 11:21 -3.20750 -48.02821 9426 ft 316 kts 165°
2026-05-07 11:22 -3.22888 -48.02297 9676 ft 317 kts 165°
2026-05-07 11:22 -3.25030 -48.01772 9926 ft 318 kts 165°
2026-05-07 11:22 -3.27171 -48.01247 10174 ft 320 kts 165°
2026-05-07 11:22 -3.29352 -48.00713 10427 ft 321 kts 165°
2026-05-07 11:23 -3.31524 -48.00180 10678 ft 322 kts 165°
2026-05-07 11:23 -3.33710 -47.99643 10929 ft 324 kts 165°
2026-05-07 11:23 -3.35880 -47.99111 11178 ft 325 kts 165°
2026-05-07 11:23 -3.38102 -47.98568 11429 ft 326 kts 165°
2026-05-07 11:24 -3.40304 -47.98032 11676 ft 328 kts 165°
2026-05-07 11:24 -3.42518 -47.97492 11928 ft 330 kts 165°
2026-05-07 11:24 -3.44770 -47.96939 12181 ft 332 kts 165°
2026-05-07 11:24 -3.47016 -47.96384 12432 ft 334 kts 165°
2026-05-07 11:25 -3.49287 -47.95819 12684 ft 336 kts 165°
2026-05-07 11:25 -3.51532 -47.95256 12932 ft 337 kts 165°
2026-05-07 11:25 -3.53818 -47.94681 13182 ft 339 kts 164°
2026-05-07 11:25 -3.56119 -47.94100 13434 ft 341 kts 164°
2026-05-07 11:26 -3.58427 -47.93515 13685 ft 343 kts 165°
2026-05-07 11:26 -3.60753 -47.92924 13937 ft 344 kts 165°
2026-05-07 11:26 -3.63083 -47.92331 14188 ft 346 kts 165°
2026-05-07 11:26 -3.65395 -47.91743 14436 ft 348 kts 165°
2026-05-07 11:27 -3.67750 -47.91144 14687 ft 349 kts 165°
2026-05-07 11:27 -3.70118 -47.90542 14938 ft 351 kts 165°
2026-05-07 11:27 -3.72475 -47.89943 15187 ft 353 kts 165°
2026-05-07 11:27 -3.74886 -47.89329 15441 ft 354 kts 165°
2026-05-07 11:28 -3.77262 -47.88726 15706 ft 355 kts 165°
2026-05-07 11:28 -3.79656 -47.88122 16072 ft 356 kts 165°
2026-05-07 11:28 -3.82076 -47.87509 16383 ft 363 kts 165°
2026-05-07 11:28 -3.84564 -47.86876 16640 ft 368 kts 165°
2026-05-07 11:29 -3.87064 -47.86240 16892 ft 370 kts 165°
2026-05-07 11:29 -3.89558 -47.85606 17142 ft 371 kts 165°
2026-05-07 11:29 -3.92071 -47.84966 17393 ft 373 kts 165°
2026-05-07 11:29 -3.94574 -47.84329 17643 ft 374 kts 165°
2026-05-07 11:30 -3.97117 -47.83681 17895 ft 376 kts 165°
2026-05-07 11:30 -3.99647 -47.83037 18145 ft 377 kts 165°
2026-05-07 11:30 -4.02077 -47.82419 18384 ft 379 kts 165°
2026-05-07 11:30 -4.04699 -47.81752 18640 ft 380 kts 165°
2026-05-07 11:31 -4.07280 -47.81095 18892 ft 381 kts 165°
2026-05-07 11:31 -4.09847 -47.80441 19142 ft 383 kts 165°
2026-05-07 11:31 -4.12431 -47.79784 19393 ft 384 kts 165°
2026-05-07 11:31 -4.15053 -47.79116 19646 ft 386 kts 165°
2026-05-07 11:32 -4.20253 -47.77793 20146 ft 388 kts 165°
2026-05-07 11:32 -4.22890 -47.77122 20398 ft 389 kts 165°
2026-05-07 11:32 -4.25524 -47.76451 20655 ft 400 kts 165°
2026-05-07 11:33 -4.28270 -47.75752 20917 ft 413 kts 165°
2026-05-07 11:33 -4.31084 -47.75035 21176 ft 423 kts 165°
2026-05-07 11:33 -4.33984 -47.74296 21435 ft 431 kts 165°
2026-05-07 11:33 -4.36897 -47.73553 21691 ft 439 kts 165°
2026-05-07 11:34 -4.39905 -47.72789 21949 ft 445 kts 165°
2026-05-07 11:34 -4.42920 -47.72030 22204 ft 451 kts 165°
2026-05-07 11:34 -4.45997 -47.71263 22460 ft 456 kts 165°
2026-05-07 11:34 -4.49075 -47.70499 22712 ft 460 kts 165°
2026-05-07 11:35 -4.52185 -47.69730 22965 ft 464 kts 165°
2026-05-07 11:35 -4.55326 -47.68954 23217 ft 467 kts 165°
2026-05-07 11:35 -4.58520 -47.68167 23472 ft 470 kts 165°
2026-05-07 11:35 -4.61676 -47.67389 23722 ft 473 kts 165°
2026-05-07 11:36 -4.64894 -47.66597 23975 ft 475 kts 165°
2026-05-07 11:36 -4.68084 -47.65811 24225 ft 476 kts 165°
2026-05-07 11:36 -4.71316 -47.65015 24477 ft 478 kts 165°
2026-05-07 11:36 -4.74546 -47.64219 24727 ft 479 kts 165°
2026-05-07 11:37 -4.77808 -47.63415 24980 ft 480 kts 165°
2026-05-07 11:37 -4.81035 -47.62620 25229 ft 481 kts 165°
2026-05-07 11:37 -4.84300 -47.61814 25481 ft 481 kts 165°
2026-05-07 11:37 -4.87534 -47.61017 25730 ft 481 kts 165°
2026-05-07 11:38 -4.90807 -47.60209 25981 ft 481 kts 165°
2026-05-07 11:38 -4.94038 -47.59411 26229 ft 481 kts 165°
2026-05-07 11:38 -4.97292 -47.58606 26478 ft 480 kts 165°
2026-05-07 11:38 -5.00518 -47.57808 26726 ft 480 kts 166°
2026-05-07 11:39 -5.03781 -47.57001 26976 ft 480 kts 166°
2026-05-07 11:39 -5.07028 -47.56198 27226 ft 479 kts 166°
2026-05-07 11:39 -5.10235 -47.55405 27473 ft 479 kts 166°
2026-05-07 11:39 -5.13490 -47.54600 27723 ft 478 kts 166°
2026-05-07 11:40 -5.16719 -47.53801 27972 ft 478 kts 166°
2026-05-07 11:40 -5.19934 -47.53007 28219 ft 477 kts 166°
2026-05-07 11:40 -5.23146 -47.52212 28467 ft 477 kts 166°
2026-05-07 11:40 -5.26380 -47.51413 28717 ft 476 kts 167°
2026-05-07 11:41 -5.29568 -47.50624 28963 ft 476 kts 167°
2026-05-07 11:41 -5.32785 -47.49829 29212 ft 476 kts 167°
2026-05-07 11:41 -5.36021 -47.49029 29463 ft 476 kts 167°
2026-05-07 11:41 -5.39225 -47.48237 29711 ft 475 kts 167°
2026-05-07 11:42 -5.42460 -47.47438 29962 ft 475 kts 167°
2026-05-07 11:42 -5.45650 -47.46649 30209 ft 475 kts 167°
2026-05-07 11:42 -5.48845 -47.45860 30457 ft 475 kts 168°
2026-05-07 11:42 -5.52073 -47.45076 30707 ft 475 kts 168°
2026-05-07 11:43 -5.55291 -47.44308 30956 ft 474 kts 168°
2026-05-07 11:43 -5.58507 -47.43551 31205 ft 474 kts 168°
2026-05-07 11:43 -5.61698 -47.42808 31451 ft 474 kts 169°
2026-05-07 11:43 -5.64918 -47.42063 31700 ft 473 kts 169°
2026-05-07 11:44 -5.68151 -47.41320 31950 ft 473 kts 169°
2026-05-07 11:44 -5.71341 -47.40588 32197 ft 473 kts 169°
2026-05-07 11:44 -5.74530 -47.39856 32444 ft 472 kts 169°
2026-05-07 11:44 -5.77747 -47.39114 32693 ft 472 kts 169°
2026-05-07 11:45 -5.80924 -47.38381 32940 ft 471 kts 169°
2026-05-07 11:45 -5.84150 -47.37635 33191 ft 471 kts 169°
2026-05-07 11:45 -5.87312 -47.36903 33438 ft 470 kts 169°
2026-05-07 11:45 -5.90508 -47.36163 33687 ft 469 kts 169°
2026-05-07 11:46 -5.93676 -47.35429 33934 ft 469 kts 169°
2026-05-07 11:46 -5.96839 -47.34696 34182 ft 468 kts 169°
2026-05-07 11:46 -6.00022 -47.33958 34432 ft 466 kts 169°
2026-05-07 11:46 -6.03166 -47.33229 34679 ft 465 kts 169°
2026-05-07 11:47 -6.06324 -47.32496 34927 ft 464 kts 169°
2026-05-07 11:47 -6.09484 -47.31763 35177 ft 462 kts 169°
2026-05-07 11:47 -6.12595 -47.31041 35423 ft 461 kts 169°
2026-05-07 11:47 -6.14671 -47.30559 35588 ft 459 kts 169°
2026-05-07 11:48 -6.18826 -47.29594 35849 ft 459 kts 169°
2026-05-07 11:48 -6.24044 -47.28384 35964 ft 463 kts 169°
2026-05-07 11:49 -6.30347 -47.26924 35975 ft 470 kts 169°
2026-05-07 11:49 -6.36789 -47.25432 35975 ft 477 kts 169°
2026-05-07 11:50 -6.43286 -47.23924 35974 ft 482 kts 169°
2026-05-07 11:50 -6.49864 -47.22396 35974 ft 485 kts 169°
2026-05-07 11:51 -6.56419 -47.20871 35969 ft 488 kts 169°
2026-05-07 11:51 -6.63078 -47.19320 35966 ft 489 kts 169°
2026-05-07 11:52 -6.69699 -47.17777 35965 ft 490 kts 169°
2026-05-07 11:52 -6.76362 -47.16227 35964 ft 491 kts 169°
2026-05-07 11:53 -6.83009 -47.14682 35963 ft 491 kts 169°
2026-05-07 11:53 -6.89681 -47.13131 35963 ft 492 kts 169°
2026-05-07 11:54 -6.96318 -47.11587 35963 ft 492 kts 169°
2026-05-07 11:54 -7.03011 -47.10030 35963 ft 492 kts 169°
2026-05-07 11:55 -7.09682 -47.08477 35963 ft 492 kts 169°
2026-05-07 11:55 -7.16354 -47.06923 35963 ft 492 kts 169°
2026-05-07 11:56 -7.23038 -47.05365 35963 ft 492 kts 169°
2026-05-07 11:56 -7.29700 -47.03812 35963 ft 492 kts 169°
2026-05-07 11:57 -7.36357 -47.02260 35963 ft 492 kts 169°
2026-05-07 11:57 -7.43034 -47.00702 35963 ft 492 kts 169°
2026-05-07 11:58 -7.49693 -46.99149 35963 ft 492 kts 169°
2026-05-07 11:58 -7.56390 -46.97585 35963 ft 492 kts 169°
2026-05-07 11:59 -7.63058 -46.96029 35963 ft 492 kts 168°
2026-05-07 11:59 -7.69738 -46.94468 35963 ft 492 kts 168°
2026-05-07 12:00 -7.76380 -46.92917 35963 ft 492 kts 168°
2026-05-07 12:00 -7.83049 -46.91358 35963 ft 492 kts 168°
2026-05-07 12:01 -7.89724 -46.89797 35963 ft 492 kts 168°
2026-05-07 12:01 -7.96392 -46.88237 35963 ft 492 kts 168°
2026-05-07 12:02 -8.03063 -46.86676 35963 ft 492 kts 168°
2026-05-07 12:02 -8.09744 -46.85112 35963 ft 492 kts 168°
2026-05-07 12:03 -8.16424 -46.83549 35963 ft 492 kts 168°
2026-05-07 12:03 -8.23098 -46.81985 35963 ft 492 kts 168°
2026-05-07 12:04 -8.29732 -46.80432 35963 ft 492 kts 168°
2026-05-07 12:04 -8.36409 -46.78867 35963 ft 492 kts 168°
2026-05-07 12:05 -8.43080 -46.77303 35963 ft 492 kts 168°
2026-05-07 12:05 -8.49761 -46.75735 35963 ft 492 kts 168°
2026-05-07 12:06 -8.56399 -46.74177 35963 ft 492 kts 168°
2026-05-07 12:06 -8.63076 -46.72609 35963 ft 492 kts 168°
2026-05-07 12:07 -8.69743 -46.71043 35963 ft 492 kts 168°
2026-05-07 12:07 -8.76403 -46.69477 35963 ft 492 kts 168°
2026-05-07 12:08 -8.83093 -46.67904 35963 ft 492 kts 168°
2026-05-07 12:08 -8.89721 -46.66345 35963 ft 492 kts 168°
2026-05-07 12:09 -8.96406 -46.64773 35963 ft 492 kts 168°
2026-05-07 12:09 -9.03085 -46.63201 35963 ft 492 kts 168°
2026-05-07 12:10 -9.09749 -46.61632 35963 ft 492 kts 168°
2026-05-07 12:10 -9.16375 -46.60071 35963 ft 492 kts 168°
2026-05-07 12:11 -9.23049 -46.58497 35963 ft 492 kts 168°
2026-05-07 12:11 -9.28113 -46.57303 35963 ft 492 kts 168°
2026-05-07 12:12 -9.34766 -46.55733 35963 ft 492 kts 168°
2026-05-07 12:12 -9.41411 -46.54165 35963 ft 492 kts 168°
2026-05-07 12:13 -9.48108 -46.52583 35963 ft 492 kts 168°
2026-05-07 12:13 -9.54750 -46.51014 35963 ft 492 kts 168°
2026-05-07 12:14 -9.61413 -46.49439 35963 ft 492 kts 168°
2026-05-07 12:14 -9.68074 -46.47864 35963 ft 492 kts 168°
2026-05-07 12:15 -9.74753 -46.46284 35963 ft 492 kts 168°
2026-05-07 12:15 -9.81405 -46.44710 35963 ft 492 kts 168°
2026-05-07 12:16 -9.88069 -46.43132 35963 ft 492 kts 168°
2026-05-07 12:16 -9.94734 -46.41553 35963 ft 492 kts 168°
2026-05-07 12:17 -10.01413 -46.39970 35963 ft 492 kts 168°
2026-05-07 12:17 -10.08095 -46.38385 35963 ft 492 kts 168°
2026-05-07 12:18 -10.14770 -46.36800 35963 ft 492 kts 168°
2026-05-07 12:18 -10.21435 -46.35221 35963 ft 492 kts 168°
2026-05-07 12:19 -10.28102 -46.33642 35963 ft 492 kts 168°
2026-05-07 12:19 -10.34767 -46.32064 35963 ft 492 kts 168°
2026-05-07 12:20 -10.41418 -46.30489 35963 ft 492 kts 168°
2026-05-07 12:20 -10.48090 -46.28907 35963 ft 492 kts 168°
2026-05-07 12:21 -10.54766 -46.27324 35963 ft 492 kts 168°
2026-05-07 12:21 -10.61411 -46.25747 35963 ft 492 kts 168°
2026-05-07 12:22 -10.68074 -46.24163 35976 ft 491 kts 168°
2026-05-07 12:22 -10.74713 -46.22583 35998 ft 490 kts 168°
2026-05-07 12:23 -10.81368 -46.21000 36001 ft 489 kts 168°
2026-05-07 12:23 -10.87959 -46.19433 36001 ft 489 kts 168°
2026-05-07 12:24 -10.93672 -46.18075 36001 ft 488 kts 168°
2026-05-07 12:24 -11.00308 -46.16496 36000 ft 488 kts 168°
2026-05-07 12:25 -11.06887 -46.14930 36000 ft 488 kts 168°
2026-05-07 12:25 -11.13501 -46.13354 35999 ft 488 kts 168°
2026-05-07 12:26 -11.20107 -46.11780 35999 ft 488 kts 168°
2026-05-07 12:26 -11.26729 -46.10200 35997 ft 488 kts 168°
2026-05-07 12:27 -11.33326 -46.08626 35995 ft 488 kts 168°
2026-05-07 12:27 -11.39947 -46.07045 35995 ft 488 kts 168°
2026-05-07 12:28 -11.46568 -46.05463 35994 ft 489 kts 168°
2026-05-07 12:28 -11.53202 -46.03876 35995 ft 489 kts 168°
2026-05-07 12:29 -11.59799 -46.02299 35995 ft 489 kts 168°
2026-05-07 12:29 -11.66433 -46.00718 35993 ft 489 kts 168°
2026-05-07 12:30 -11.73056 -45.99141 35993 ft 489 kts 168°
2026-05-07 12:30 -11.79685 -45.97562 35993 ft 489 kts 168°
2026-05-07 12:31 -11.86291 -45.95986 35992 ft 489 kts 168°
2026-05-07 12:31 -11.92913 -45.94404 35992 ft 489 kts 168°
2026-05-07 12:32 -11.98453 -45.93077 35989 ft 489 kts 168°
2026-05-07 12:32 -12.05060 -45.91494 35988 ft 489 kts 168°
2026-05-07 12:33 -12.15042 -45.89099 35987 ft 490 kts 168°
2026-05-07 12:33 -12.21649 -45.87513 35987 ft 490 kts 168°
2026-05-07 12:34 -12.28276 -45.85920 35987 ft 490 kts 168°
2026-05-07 12:34 -12.34931 -45.84320 35986 ft 490 kts 168°
2026-05-07 12:35 -12.41548 -45.82728 35986 ft 490 kts 168°
2026-05-07 12:35 -12.48201 -45.81127 35986 ft 490 kts 168°
2026-05-07 12:36 -12.54843 -45.79527 35985 ft 490 kts 168°
2026-05-07 12:36 -12.61473 -45.77929 35985 ft 490 kts 168°
2026-05-07 12:37 -12.68103 -45.76330 35984 ft 490 kts 168°
2026-05-07 12:37 -12.74775 -45.74721 35983 ft 490 kts 168°
2026-05-07 12:38 -12.81394 -45.73123 35984 ft 490 kts 168°
2026-05-07 12:38 -12.88054 -45.71515 35973 ft 491 kts 168°
2026-05-07 12:39 -12.94692 -45.69911 35967 ft 491 kts 168°
2026-05-07 12:39 -13.01330 -45.68305 35964 ft 492 kts 168°
2026-05-07 12:40 -13.08035 -45.66681 35963 ft 492 kts 168°
2026-05-07 12:40 -13.14669 -45.65076 35963 ft 492 kts 168°
2026-05-07 12:41 -13.21348 -45.63460 35963 ft 492 kts 168°
2026-05-07 12:41 -13.28033 -45.61842 35963 ft 492 kts 168°
2026-05-07 12:42 -13.34694 -45.60230 35963 ft 492 kts 168°
2026-05-07 12:42 -13.41389 -45.58611 35963 ft 492 kts 168°
2026-05-07 12:43 -13.48048 -45.56999 35963 ft 493 kts 168°
2026-05-07 12:43 -13.54726 -45.55382 35963 ft 493 kts 168°
2026-05-07 12:44 -13.61376 -45.53770 35963 ft 493 kts 168°
2026-05-07 12:44 -13.68049 -45.52150 35963 ft 493 kts 168°
2026-05-07 12:45 -13.74733 -45.50526 35963 ft 493 kts 168°
2026-05-07 12:45 -13.81398 -45.48904 35963 ft 493 kts 168°
2026-05-07 12:46 -13.88087 -45.47273 35963 ft 493 kts 168°
2026-05-07 12:46 -13.94736 -45.45648 35963 ft 493 kts 168°
2026-05-07 12:47 -14.01417 -45.44014 35963 ft 493 kts 168°
2026-05-07 12:47 -14.08069 -45.42384 35963 ft 493 kts 168°
2026-05-07 12:48 -14.14753 -45.40745 35963 ft 493 kts 168°
2026-05-07 12:48 -14.21442 -45.39104 35963 ft 493 kts 168°
2026-05-07 12:49 -14.28088 -45.37471 35963 ft 493 kts 168°
2026-05-07 12:49 -14.34768 -45.35827 35963 ft 493 kts 168°
2026-05-07 12:50 -14.41413 -45.34197 35963 ft 493 kts 168°
2026-05-07 12:50 -14.48095 -45.32564 35963 ft 493 kts 168°
2026-05-07 12:51 -14.54787 -45.30929 35963 ft 493 kts 168°
2026-05-07 12:51 -14.61454 -45.29300 35963 ft 493 kts 168°
2026-05-07 12:52 -14.68120 -45.27670 35963 ft 493 kts 168°
2026-05-07 12:52 -14.74777 -45.26040 35963 ft 493 kts 168°
2026-05-07 12:53 -14.81445 -45.24406 35963 ft 493 kts 168°
2026-05-07 12:53 -14.88128 -45.22766 35963 ft 493 kts 168°
2026-05-07 12:54 -14.94793 -45.21128 35963 ft 493 kts 168°
2026-05-07 12:54 -15.01476 -45.19486 35963 ft 493 kts 168°
2026-05-07 12:55 -15.08149 -45.17845 35963 ft 493 kts 168°
2026-05-07 12:55 -15.14825 -45.16202 35963 ft 493 kts 168°
2026-05-07 12:56 -15.21494 -45.14559 35963 ft 493 kts 168°
2026-05-07 12:56 -15.28173 -45.12912 35963 ft 493 kts 168°
2026-05-07 12:57 -15.34832 -45.11269 35963 ft 493 kts 168°
2026-05-07 12:57 -15.41500 -45.09621 35963 ft 493 kts 168°
2026-05-07 12:58 -15.48163 -45.07973 35963 ft 493 kts 168°
2026-05-07 12:58 -15.54823 -45.06329 35963 ft 493 kts 168°
2026-05-07 12:59 -15.61527 -45.04677 35963 ft 493 kts 168°
2026-05-07 12:59 -15.68194 -45.03035 35963 ft 493 kts 168°
2026-05-07 13:00 -15.74838 -45.01397 35963 ft 493 kts 168°
2026-05-07 13:00 -15.81533 -44.99746 35963 ft 493 kts 168°
2026-05-07 13:01 -15.88187 -44.98103 35963 ft 493 kts 168°
2026-05-07 13:01 -15.94845 -44.96458 35963 ft 493 kts 168°
2026-05-07 13:02 -16.01508 -44.94809 35963 ft 493 kts 168°
2026-05-07 13:02 -16.08185 -44.93157 36033 ft 489 kts 167°
2026-05-07 13:03 -16.11487 -44.92341 36158 ft 483 kts 167°
2026-05-07 13:03 -16.14750 -44.91532 36209 ft 480 kts 167°
2026-05-07 13:03 -16.21209 -44.89922 36227 ft 476 kts 167°
2026-05-07 13:04 -16.27641 -44.88314 36228 ft 474 kts 167°
2026-05-07 13:04 -16.34009 -44.86718 36229 ft 472 kts 167°
2026-05-07 13:05 -16.40415 -44.85109 36229 ft 472 kts 167°
2026-05-07 13:05 -16.46768 -44.83513 36229 ft 471 kts 167°
2026-05-07 13:06 -16.53131 -44.81913 36229 ft 471 kts 167°
2026-05-07 13:06 -16.59523 -44.80304 36229 ft 470 kts 167°
2026-05-07 13:07 -16.65859 -44.78708 36229 ft 470 kts 167°
2026-05-07 13:07 -16.72226 -44.77104 36229 ft 470 kts 167°
2026-05-07 13:08 -16.78556 -44.75506 36229 ft 470 kts 167°
2026-05-07 13:08 -16.84936 -44.73903 36229 ft 470 kts 167°
2026-05-07 13:09 -16.91272 -44.72333 36229 ft 470 kts 167°
2026-05-07 13:09 -16.97640 -44.70765 36229 ft 469 kts 167°
2026-05-07 13:10 -17.03978 -44.69208 36229 ft 469 kts 167°
2026-05-07 13:10 -17.10358 -44.67640 36229 ft 469 kts 167°
2026-05-07 13:11 -17.16682 -44.66085 36229 ft 469 kts 167°
2026-05-07 13:11 -17.23053 -44.64516 36229 ft 469 kts 167°
2026-05-07 13:12 -17.29418 -44.62947 36229 ft 469 kts 167°
2026-05-07 13:12 -17.35740 -44.61386 36229 ft 469 kts 167°
2026-05-07 13:13 -17.42112 -44.59812 36229 ft 469 kts 167°
2026-05-07 13:13 -17.48441 -44.58246 36229 ft 469 kts 167°
2026-05-07 13:14 -17.54806 -44.56671 36229 ft 469 kts 167°
2026-05-07 13:14 -17.60101 -44.55359 36229 ft 469 kts 167°
2026-05-07 13:15 -17.66453 -44.53755 36229 ft 469 kts 167°
2026-05-07 13:15 -17.72769 -44.52108 36229 ft 469 kts 167°
2026-05-07 13:16 -17.79111 -44.50429 36229 ft 469 kts 167°
2026-05-07 13:16 -17.85447 -44.48739 36229 ft 469 kts 167°
2026-05-07 13:17 -17.91777 -44.47046 36229 ft 469 kts 167°
2026-05-07 13:17 -17.98096 -44.45356 36229 ft 469 kts 167°
2026-05-07 13:18 -18.04415 -44.43676 36229 ft 469 kts 167°
2026-05-07 13:18 -18.10772 -44.42033 36229 ft 469 kts 167°
2026-05-07 13:19 -18.17103 -44.40420 36229 ft 469 kts 167°
2026-05-07 13:19 -18.23434 -44.38815 36229 ft 469 kts 167°
2026-05-07 13:20 -18.29802 -44.37202 36229 ft 469 kts 167°
2026-05-07 13:20 -18.36138 -44.35595 36229 ft 469 kts 167°
2026-05-07 13:21 -18.42496 -44.33980 36229 ft 469 kts 167°
2026-05-07 13:21 -18.48850 -44.32363 36229 ft 469 kts 167°
2026-05-07 13:22 -18.55169 -44.30753 36229 ft 469 kts 167°
2026-05-07 13:22 -18.61498 -44.29138 36229 ft 469 kts 167°
2026-05-07 13:23 -18.67881 -44.27507 36228 ft 469 kts 167°
2026-05-07 13:23 -18.74234 -44.25882 36226 ft 469 kts 167°
2026-05-07 13:24 -18.80576 -44.24258 36226 ft 469 kts 167°
2026-05-07 13:24 -18.86887 -44.22640 36227 ft 469 kts 167°
2026-05-07 13:25 -18.93227 -44.21012 36227 ft 469 kts 167°
2026-05-07 13:25 -18.99535 -44.19391 36228 ft 469 kts 167°
2026-05-07 13:26 -19.05892 -44.17756 36229 ft 469 kts 167°
2026-05-07 13:26 -19.12243 -44.16120 36229 ft 469 kts 167°
2026-05-07 13:27 -19.18560 -44.14491 36229 ft 469 kts 167°
2026-05-07 13:27 -19.24898 -44.12856 36229 ft 469 kts 167°
2026-05-07 13:28 -19.31244 -44.11217 36229 ft 469 kts 167°
2026-05-07 13:28 -19.37594 -44.09575 36229 ft 469 kts 167°
2026-05-07 13:29 -19.43958 -44.07928 36229 ft 469 kts 167°
2026-05-07 13:29 -19.50286 -44.06289 36229 ft 469 kts 167°
2026-05-07 13:30 -19.56680 -44.04779 36229 ft 469 kts 169°
2026-05-07 13:30 -19.63075 -44.03575 36229 ft 469 kts 171°
2026-05-07 13:31 -19.69520 -44.02518 36229 ft 469 kts 172°
2026-05-07 13:31 -19.75985 -44.01523 36229 ft 469 kts 172°
2026-05-07 13:32 -19.82437 -44.00683 36229 ft 469 kts 176°
2026-05-07 13:32 -19.88962 -44.00627 36230 ft 468 kts 182°
2026-05-07 13:33 -19.95480 -44.01090 36149 ft 470 kts 185°
2026-05-07 13:33 -19.98764 -44.01425 35920 ft 475 kts 185°
2026-05-07 13:33 -20.02054 -44.01797 35776 ft 477 kts 186°
2026-05-07 13:34 -20.05337 -44.02186 35622 ft 479 kts 186°
2026-05-07 13:34 -20.12005 -44.02902 35306 ft 482 kts 185°
2026-05-07 13:34 -20.15354 -44.03227 35148 ft 483 kts 184°
2026-05-07 13:35 -20.18708 -44.03540 34991 ft 484 kts 184°
2026-05-07 13:35 -20.22025 -44.03840 34835 ft 485 kts 184°
2026-05-07 13:35 -20.25388 -44.04139 34677 ft 486 kts 184°
2026-05-07 13:35 -20.28771 -44.04437 34518 ft 486 kts 184°
2026-05-07 13:36 -20.32159 -44.04734 34360 ft 487 kts 184°
2026-05-07 13:36 -20.35503 -44.05028 34203 ft 487 kts 184°
2026-05-07 13:36 -20.38897 -44.05326 34044 ft 488 kts 184°
2026-05-07 13:36 -20.42287 -44.05625 33886 ft 488 kts 184°
2026-05-07 13:37 -20.45677 -44.05927 33728 ft 489 kts 184°
2026-05-07 13:37 -20.49074 -44.06230 33570 ft 489 kts 184°
2026-05-07 13:37 -20.52475 -44.06536 33411 ft 490 kts 184°
2026-05-07 13:37 -20.55842 -44.06839 33254 ft 490 kts 184°
2026-05-07 13:38 -20.59244 -44.07147 33096 ft 490 kts 184°
2026-05-07 13:38 -20.62650 -44.07455 32938 ft 491 kts 184°
2026-05-07 13:38 -20.66061 -44.07765 32779 ft 491 kts 184°
2026-05-07 13:38 -20.69474 -44.08074 32621 ft 492 kts 184°
2026-05-07 13:39 -20.72887 -44.08382 32462 ft 492 kts 184°
2026-05-07 13:39 -20.76267 -44.08688 32306 ft 492 kts 184°
2026-05-07 13:39 -20.79684 -44.08996 32147 ft 493 kts 184°
2026-05-07 13:39 -20.83105 -44.09305 31989 ft 493 kts 184°
2026-05-07 13:40 -20.86539 -44.09615 31830 ft 494 kts 184°
2026-05-07 13:40 -20.89971 -44.09925 31672 ft 494 kts 184°
2026-05-07 13:40 -20.93399 -44.10235 31513 ft 494 kts 184°
2026-05-07 13:40 -20.96783 -44.10541 31357 ft 495 kts 184°
2026-05-07 13:41 -21.00221 -44.10853 31199 ft 495 kts 184°
2026-05-07 13:41 -21.03659 -44.11164 31041 ft 496 kts 184°
2026-05-07 13:41 -21.07098 -44.11476 30883 ft 496 kts 184°
2026-05-07 13:41 -21.10545 -44.11788 30725 ft 496 kts 184°
2026-05-07 13:42 -21.13992 -44.12101 30566 ft 497 kts 184°
2026-05-07 13:42 -21.17436 -44.12414 30409 ft 497 kts 184°
2026-05-07 13:42 -21.20893 -44.12728 30250 ft 497 kts 184°
2026-05-07 13:42 -21.24301 -44.13037 30094 ft 498 kts 184°
2026-05-07 13:43 -21.27757 -44.13352 29936 ft 498 kts 183°
2026-05-07 13:43 -21.31221 -44.13667 29777 ft 498 kts 183°
2026-05-07 13:43 -21.34677 -44.13982 29619 ft 499 kts 183°
2026-05-07 13:43 -21.38141 -44.14296 29461 ft 499 kts 184°
2026-05-07 13:44 -21.41602 -44.14608 29303 ft 499 kts 183°
2026-05-07 13:44 -21.45076 -44.14552 29134 ft 498 kts 174°
2026-05-07 13:44 -21.48485 -44.13826 28986 ft 498 kts 165°
2026-05-07 13:44 -21.51730 -44.12666 28839 ft 499 kts 160°
2026-05-07 13:45 -21.54919 -44.11192 28605 ft 501 kts 156°
2026-05-07 13:45 -21.58063 -44.09507 28169 ft 507 kts 153°
2026-05-07 13:45 -21.61151 -44.07698 27682 ft 497 kts 151°
2026-05-07 13:45 -21.64095 -44.05878 27177 ft 476 kts 150°
2026-05-07 13:46 -21.66886 -44.04101 26666 ft 456 kts 149°
2026-05-07 13:46 -21.69562 -44.02380 26157 ft 441 kts 149°
2026-05-07 13:46 -21.72136 -44.00734 25655 ft 429 kts 149°
2026-05-07 13:46 -21.74686 -43.99128 25149 ft 421 kts 150°
2026-05-07 13:47 -21.77213 -43.97572 24641 ft 415 kts 150°
2026-05-07 13:47 -21.79736 -43.96059 23977 ft 415 kts 151°
2026-05-07 13:47 -21.82284 -43.94589 23241 ft 414 kts 152°
2026-05-07 13:47 -21.84842 -43.93183 22475 ft 405 kts 153°
2026-05-07 13:48 -21.87166 -43.91950 21671 ft 361 kts 153°
2026-05-07 13:48 -21.89531 -43.90722 21010 ft 401 kts 153°
2026-05-07 13:48 -21.92117 -43.89388 20323 ft 409 kts 153°
2026-05-07 13:48 -21.94677 -43.88076 19533 ft 405 kts 153°
2026-05-07 13:49 -21.97204 -43.86784 18777 ft 398 kts 153°
2026-05-07 13:49 -21.99693 -43.85511 18022 ft 393 kts 153°
2026-05-07 13:49 -22.02114 -43.84273 17281 ft 388 kts 153°
2026-05-07 13:49 -22.04540 -43.83031 16711 ft 379 kts 153°
2026-05-07 13:50 -22.06899 -43.81822 16328 ft 371 kts 153°
2026-05-07 13:50 -22.09230 -43.80624 15956 ft 369 kts 153°
2026-05-07 13:50 -22.11549 -43.79430 15699 ft 368 kts 153°
2026-05-07 13:50 -22.13831 -43.78252 15453 ft 369 kts 152°
2026-05-07 13:51 -22.16149 -43.77053 15204 ft 369 kts 152°
2026-05-07 13:51 -22.18473 -43.75849 14953 ft 369 kts 152°
2026-05-07 13:51 -22.20795 -43.74646 14703 ft 369 kts 152°
2026-05-07 13:51 -22.23084 -43.73459 14455 ft 368 kts 152°
2026-05-07 13:52 -22.25397 -43.72260 14204 ft 367 kts 152°
2026-05-07 13:52 -22.27696 -43.71066 13953 ft 366 kts 152°
2026-05-07 13:52 -22.29992 -43.69874 13703 ft 364 kts 152°
2026-05-07 13:52 -22.32243 -43.68705 13456 ft 363 kts 152°
2026-05-07 13:53 -22.34511 -43.67525 13205 ft 361 kts 152°
2026-05-07 13:53 -22.36778 -43.66345 12954 ft 359 kts 152°
2026-05-07 13:53 -22.39032 -43.65172 12703 ft 358 kts 152°
2026-05-07 13:53 -22.41273 -43.64005 12452 ft 356 kts 152°
2026-05-07 13:54 -22.43502 -43.62844 12201 ft 355 kts 152°
2026-05-07 13:54 -22.45695 -43.61702 11954 ft 353 kts 152°
2026-05-07 13:54 -22.47915 -43.60546 11703 ft 352 kts 152°
2026-05-07 13:54 -22.50118 -43.59400 11452 ft 351 kts 152°
2026-05-07 13:55 -22.52321 -43.58252 11225 ft 348 kts 152°
2026-05-07 13:55 -22.54475 -43.57129 11100 ft 346 kts 152°
2026-05-07 13:55 -22.56636 -43.56002 11045 ft 344 kts 152°
2026-05-07 13:55 -22.58798 -43.54874 11031 ft 343 kts 152°
2026-05-07 13:56 -22.60961 -43.53743 11027 ft 344 kts 152°
2026-05-07 13:56 -22.63089 -43.52631 11026 ft 344 kts 152°
2026-05-07 13:56 -22.65246 -43.51505 11026 ft 344 kts 152°
2026-05-07 13:56 -22.67402 -43.50380 11026 ft 344 kts 152°
2026-05-07 13:57 -22.69606 -43.49287 11020 ft 345 kts 154°
2026-05-07 13:57 -22.71841 -43.48312 10667 ft 351 kts 157°
2026-05-07 13:57 -22.74132 -43.47430 10294 ft 350 kts 159°
2026-05-07 13:57 -22.76452 -43.46633 9913 ft 348 kts 161°
2026-05-07 13:58 -22.78779 -43.45906 9531 ft 345 kts 162°
2026-05-07 13:58 -22.81064 -43.45234 9153 ft 342 kts 163°
2026-05-07 13:58 -22.83216 -43.44191 8739 ft 337 kts 147°
2026-05-07 13:58 -22.84931 -43.42498 8367 ft 334 kts 129°
2026-05-07 13:59 -22.86070 -43.40311 7989 ft 333 kts 111°
2026-05-07 13:59 -22.86516 -43.37885 7614 ft 331 kts 94°
2026-05-07 13:59 -22.86239 -43.35421 7234 ft 330 kts 76°
2026-05-07 13:59 -22.85275 -43.33196 6800 ft 306 kts 57°
2026-05-07 14:00 -22.83975 -43.31717 6134 ft 243 kts 37°
2026-05-07 14:00 -22.82685 -43.30864 5917 ft 229 kts 30°
2026-05-07 14:00 -22.81206 -43.29978 5798 ft 242 kts 32°
2026-05-07 14:00 -22.80041 -43.28688 5190 ft 235 kts 55°
2026-05-07 14:01 -22.79691 -43.27145 4441 ft 207 kts 89°
2026-05-07 14:01 -22.80540 -43.25943 2884 ft 212 kts 136°
2026-05-07 14:01 -22.82013 -43.25817 1896 ft 221 kts 196°
2026-05-07 14:01 -22.82681 -43.26584 1657 ft 211 kts 230°
2026-05-07 14:02 -22.83456 -43.27966 1873 ft 216 kts 238°
2026-05-07 14:02 -22.83930 -43.29841 2576 ft 185 kts 263°
2026-05-07 14:02 -22.83772 -43.31247 2634 ft 190 kts 298°
2026-05-07 14:02 -22.83028 -43.31706 2436 ft 197 kts 346°
2026-05-07 14:03 -22.81647 -43.31303 2172 ft 218 kts 21°
2026-05-07 14:03 -22.80812 -43.29877 1316 ft 242 kts 65°
2026-05-07 14:03 -22.80642 -43.27998 771 ft 224 kts 82°
2026-05-07 14:03 -22.80413 -43.26550 361 ft 171 kts 77°
2026-05-07 14:04 -22.80155 -43.25425 52 ft 139 kts 75°
2026-05-07 14:04 -22.79956 -43.24630 46 ft 78 kts 74°
2026-05-07 14:04 -22.79884 -43.24218 46 ft 31 kts 89°
2026-05-07 14:04 -22.79894 -43.24023 46 ft 23 kts 96°
2026-05-07 14:05 -22.79927 -43.23884 46 ft 16 kts 130°
2026-05-07 14:05 -22.80031 -43.23838 46 ft 17 kts 167°
2026-05-07 14:05 -22.80115 -43.23876 46 ft 16 kts 239°
2026-05-07 14:05 -22.80151 -43.23983 46 ft 17 kts 254°
2026-05-07 14:06 -22.80194 -43.24162 46 ft 33 kts 255°
2026-05-07 14:06 -22.80266 -43.24447 46 ft 39 kts 255°
2026-05-07 14:06 -22.80329 -43.24693 46 ft 30 kts 255°
2026-05-07 14:06 -22.80377 -43.24884 46 ft 23 kts 255°
2026-05-07 14:07 -22.80417 -43.25045 46 ft 22 kts 255°
2026-05-07 14:07 -22.80458 -43.25203 46 ft 25 kts 249°
2026-05-07 14:07 -22.80585 -43.25398 46 ft 39 kts 221°
2026-05-07 14:07 -22.80757 -43.25539 46 ft 19 kts 216°
2026-05-07 14:08 -22.80860 -43.25589 46 ft 15 kts 158°
2026-05-07 14:08 -22.80926 -43.25509 46 ft 16 kts 148°
2026-05-07 14:08 -22.81012 -43.25443 46 ft 7 kts 140°
2026-05-07 14:08 -22.81047 -43.25388 46 ft 14 kts 98°
2026-05-07 14:09 -22.81048 -43.25343 46 ft 1 kts 91°
2026-05-07 14:09 -22.81048 -43.25334 46 ft 0 kts 87°